[ ตารางข้อมูล ] [ Min-Max ] [ วันนี้4 ] [ วันนี้2 ] [ เทียบ3วัน A ] [ เทียบ4วัน B ]   

วันนี้2   [ ◀ ช่วงเก่ากว่า ] [ ช่วงที่ 283 ] [ ช่วงใหม่กว่า ▶ ] [ ล่าสุด ]    [ 3 ชั่วโมง ] [ 6 ชั่วโมง ] [ 12 ชั่วโมง ] [ 24 ชั่วโมง ]   วันนี้2

อุณภูมิตู้ Knockdown4529  ราย 3 ชั่วโมง  ที่วัดได้ ในช่วงวันเวลา 02/04/2026 (16:33) ถึง 02/04/2026 (19:33) 
ความชื้นในตู้ Knockdown4529  ราย 3 ชั่วโมง  ที่วัดได้ ในช่วงวันเวลา 02/04/2026 (16:33) ถึง 02/04/2026 (19:33) 

 
DS18B20SHTC3 
IDDate d/m/Y & Timedata1
สูง
data2
ต่ำ
data3
นอก
temp
pcb
hum
pcb
Time
 8200  02/04/2026 19:30:26  29.7  29.8  28.6  29.7  70.7  19:30 
 8199  02/04/2026 19:25:45  29.7  29.8  28.6  29.6  70.7  19:25 
 8198  02/04/2026 19:21:03  29.7  29.8  28.7  29.5  70.6  19:21 
 8197  02/04/2026 19:16:21  29.8  29.8  28.7  29.9  70.6  19:16 
 8196  02/04/2026 19:11:40  29.8  29.9  28.7  29.7  70.7  19:11 
 8195  02/04/2026 19:06:58  29.8  29.8  28.7  29.8  70.6  19:06 
 8194  02/04/2026 19:02:16  29.8  29.9  28.7  29.8  70.5  19:02 
 8193  02/04/2026 18:57:34  29.8  29.9  28.8  29.7  70.6  18:57 
 8192  02/04/2026 18:52:53  29.8  29.8  28.8  29.6  70.6  18:52 
 8191  02/04/2026 18:48:10  29.8  29.8  28.9  29.6  70.8  18:48 
 8190  02/04/2026 18:43:28  29.6  29.6  28.9  29.4  70.9  18:43 
 8189  02/04/2026 18:38:46  29.6  29.5  28.9  29.4  71.1  18:38 
 8188  02/04/2026 18:34:05  29.6  29.6  28.9  29.5  71.0  18:34 
 8187  02/04/2026 18:29:21  29.7  29.6  29.0  29.6  71.2  18:29 
 8186  02/04/2026 18:24:39  29.8  29.6  29.0  29.5  71.1  18:24 
 8185  02/04/2026 18:19:58  29.8  29.7  29.1  29.8  71.1  18:19 
 8184  02/04/2026 18:15:16  29.8  29.8  29.0  29.8  70.6  18:15 
 8183  02/04/2026 18:10:34  29.9  29.8  29.0  29.7  70.1  18:10 
 8182  02/04/2026 18:05:52  29.9  29.9  29.2  29.9  69.8  18:05 
 8181  02/04/2026 18:01:11  30.0  29.9  29.2  30.0  69.5  18:01 
 8180  02/04/2026 17:56:29  30.1  30.0  29.4  30.0  69.7  17:56 
 8179  02/04/2026 17:51:48  30.1  30.1  29.5  29.9  69.3  17:51 
 8178  02/04/2026 17:47:06  30.2  30.1  29.5  30.1  69.6  17:47 
 8177  02/04/2026 17:42:24  30.3  30.1  29.5  30.1  69.3  17:42 

Data every 5 minute.


ใช้เวลาประมวลผล 0.00197 วินาที